This is the latest recevied weather packets stored in our database for station/object KM4CNW. If no packets are shown the sender has not sent any weather packets the latest 10 day(s).
| Time | Temp. | Humidity | Pressure | Rain* | Wind** | Luminosity | Snow |
|---|---|---|---|---|---|---|---|
| 1777923393 | 27.22° C | 27% | 1008.5 hPa | 0 mm | - | 753 W/m² | - |
| 1777923091 | 26.67° C | 27% | 1008.8 hPa | 0 mm | - | 763 W/m² | - |
| 1777922789 | 25.56° C | 26% | 1008.7 hPa | 0 mm | - | 775 W/m² | - |
| 1777922487 | 26.67° C | 26% | 1008.7 hPa | 0 mm | - | 785 W/m² | - |
| 1777922185 | 26.67° C | 26% | 1008.7 hPa | 0 mm | - | 795 W/m² | - |
| 1777921881 | 26.67° C | 27% | 1008.7 hPa | 0 mm | - | 809 W/m² | - |
| 1777921577 | 26.67° C | 25% | 1009 hPa | 0 mm | - | 817 W/m² | - |
| 1777921274 | 26.67° C | 27% | 1009.1 hPa | 0 mm | - | 830 W/m² | - |
| 1777920970 | 26.11° C | 27% | 1009.1 hPa | 0 mm | - | 825 W/m² | - |
| 1777920667 | 26.11° C | 27% | 1009 hPa | 0 mm | - | 852 W/m² | - |
| 1777920363 | 26.11° C | 28% | 1009.2 hPa | 0 mm | - | 858 W/m² | - |
| 1777920058 | 26.11° C | 29% | 1009.1 hPa | 0 mm | - | 865 W/m² | - |
| 1777919756 | 25.56° C | 29% | 1009.3 hPa | 0 mm | - | 870 W/m² | - |
| 1777919453 | 26.11° C | 28% | 1009.2 hPa | 0 mm | - | 874 W/m² | - |
| 1777919150 | 25.56° C | 30% | 1009.3 hPa | 0 mm | - | 883 W/m² | - |
| 1777918848 | 26.11° C | 29% | 1009.8 hPa | 0 mm | - | 885 W/m² | - |
| 1777918545 | 26.11° C | 28% | 1009.6 hPa | 0 mm | - | 891 W/m² | - |
| 1777918243 | 26.11° C | 29% | 1009.5 hPa | 0 mm | - | 894 W/m² | - |
| 1777917942 | 25° C | 30% | 1009.4 hPa | 0 mm | - | 898 W/m² | - |
| 1777917640 | 25° C | 28% | 1009.5 hPa | 0 mm | - | 900 W/m² | - |
| 1777917337 | 25.56° C | 27% | 1009.3 hPa | 0 mm | - | 907 W/m² | - |
| 1777917034 | 25.56° C | 28% | 1009.4 hPa | 0 mm | - | 909 W/m² | - |
| 1777916732 | 25° C | 31% | 1009.5 hPa | 0 mm | - | 910 W/m² | - |
| 1777916428 | 25° C | 31% | 1009.6 hPa | 0 mm | - | 912 W/m² | - |
| 1777916125 | 25° C | 29% | 1009.8 hPa | 0 mm | - | 905 W/m² | - |
* Rain latest hour (hover to see other rain measurements)
** Current wind speed in m/s (hover to see current wind gust speed)